SAS53T EKCH-EKVG

Flight info

Callsign SAS53T
Flight time N/A
Altitude 38000
Route GOLGA DCT AMSEV DCT ZOL DCT GUNPA/M077F380 DCT ROBUR
Aircraft A20N/M-SDE3FGIJ1RWXY/ALB1

Departure

Time 2026-04-30 14:45
Airport Copenhagen Kastrup Airport (EKCH)

Arrival

Time N/A
Airport Vágar Airport (EKVG)
Time Latitude Longitude Altitude Speed Heading
2026-04-30 14:26 55.62672 12.64429 18 ft 0 kts 101°
2026-04-30 14:36 55.62674 12.64415 18 ft 2 kts 98°
2026-04-30 14:36 55.62677 12.64389 18 ft 2 kts 117°
2026-04-30 14:36 55.62685 12.64368 18 ft 2 kts 141°
2026-04-30 14:36 55.62699 12.64355 18 ft 2 kts 166°
2026-04-30 14:37 55.62714 12.64352 18 ft 2 kts 189°
2026-04-30 14:37 55.62723 12.64357 18 ft 0 kts 205°
2026-04-30 14:37 55.62729 12.64362 18 ft 0 kts 207°
2026-04-30 14:39 55.62714 12.64350 18 ft 6 kts 204°
2026-04-30 14:39 55.62653 12.64305 18 ft 11 kts 202°
2026-04-30 14:40 55.62524 12.64404 17 ft 13 kts 123°
2026-04-30 14:40 55.62465 12.64483 17 ft 10 kts 184°
2026-04-30 14:40 55.62382 12.64445 15 ft 14 kts 195°
2026-04-30 14:40 55.62281 12.64397 15 ft 15 kts 191°
2026-04-30 14:41 55.62175 12.64417 15 ft 15 kts 169°
2026-04-30 14:41 55.62067 12.64454 15 ft 16 kts 171°
2026-04-30 14:41 55.61953 12.64489 15 ft 16 kts 170°
2026-04-30 14:41 55.61837 12.64528 15 ft 17 kts 169°
2026-04-30 14:42 55.61720 12.64567 15 ft 17 kts 170°
2026-04-30 14:42 55.61610 12.64492 15 ft 17 kts 213°
2026-04-30 14:42 55.61509 12.64374 15 ft 17 kts 214°
2026-04-30 14:42 55.61406 12.64255 17 ft 17 kts 213°
2026-04-30 14:43 55.61302 12.64137 16 ft 17 kts 213°
2026-04-30 14:43 55.61200 12.64018 16 ft 18 kts 214°
2026-04-30 14:43 55.61094 12.63899 17 ft 17 kts 212°
2026-04-30 14:43 55.60989 12.63778 16 ft 18 kts 213°
2026-04-30 14:44 55.60884 12.63657 16 ft 18 kts 213°
2026-04-30 14:44 55.60773 12.63615 15 ft 17 kts 141°
2026-04-30 14:44 55.60694 12.63776 15 ft 17 kts 130°
2026-04-30 14:44 55.60715 12.63931 15 ft 15 kts 41°
2026-04-30 14:45 55.60949 12.64291 15 ft 80 kts 41°
2026-04-30 14:45 55.61530 12.65192 16 ft 140 kts 41°
2026-04-30 14:45 55.62360 12.66447 268 ft 166 kts 39°
2026-04-30 14:45 55.63206 12.67780 883 ft 167 kts 39°
2026-04-30 14:46 55.64056 12.69182 1601 ft 168 kts 38°
2026-04-30 14:46 55.64943 12.70520 2187 ft 175 kts 32°
2026-04-30 14:46 55.66040 12.71456 2748 ft 181 kts
2026-04-30 14:46 55.66894 12.71439 3085 ft 189 kts 348°
2026-04-30 14:47 55.68627 12.70395 3700 ft 213 kts 350°
2026-04-30 14:47 55.70143 12.70111 4208 ft 230 kts 355°
2026-04-30 14:47 55.71775 12.69857 4780 ft 246 kts 356°